sat.trackr.live / text

‹ back to catalog

STARLINK-37903

NORAD 69945 · 2026-157C

PAYLOAD ACTIVE UNKNOWN

§ Identity

Operator
Country
US
Launch date
2026-07-09
Launch site
AFETR
Launch vehicle
Mass (kg)
RCS (m²)

Purposes: comms

External: N2YO · Heavens-Above · Gunter

§ Orbital elements

Epoch: 2026-09-20T04:48:24.752736Z

Period
93.85 min
Inclination
53.1603°
Eccentricity
0.0001563
Mean motion
15.34396526 rev/d
Perigee alt
461.6 km
Apogee alt
463.8 km
Semi-major
6,840.9 km
B*
2.9992e-4
RAAN
335.3699°
Arg perigee
92.0039°
Mean anomaly
268.1142°
Rev number
1,132

§ Raw data

STARLINK-379031 69945U 26157C   26263.20028649  .00009769  00000+0  29992-3 0  99982 69945  53.1603 335.3699 0001563  92.0039 268.1142 15.34396526 11324

JSON: /api/v1/satellites/69945 · /tle

For live sub-satellite position, see the globe view (requires WebGL).

§ Visibility from observer

Set your observer location to see the next 7 days of passes ≥ 10°. The values pass through the URL so the page stays shareable.

No JS? Fill the form by hand. The geolocation button needs JavaScript.